Weather History for Houston, TX

Change the Weather History Date:

Monday, February 18, 2013

  Actual Average Record
Temperature  
Mean Temperature 65 °F 57 °F  
Max Temperature 74 °F 67 °F 87 °F (1986)
Min Temperature 55 °F 47 °F 19 °F (1936)
Degree Days  
Heating Degree Days 0 9  
Month to date heating degree days 108 185  
Since 1 July heating degree days 855 1109  
Growing Degree Days 14 (Base 50)    
Moisture  
Dew Point 59 °F    
Average Humidity 74    
Maximum Humidity 84    
Minimum Humidity 63    
Precipitation  
Precipitation 0.33 in 0.13 in 2.09 in (1938)
Month to date precipitation 1.00 2.04  
Year to date precipitation 4.21 5.42  
Sea Level Pressure  
Sea Level Pressure 29.96 in    
Wind  
Wind Speed 14 mph (South)    
Max Wind Speed 31 mph    
Max Gust Speed 38 mph    
Visibility 9 miles    
Events Rain    
T = Trace of Precipitation, MM = Missing Value Source: NWS Daily Summary

Daily Weather History Graph

Daily Weather History Graph

Search for Another Location

Airport:

Trip Planner

Search our weather history database for the weather conditions in past years. The results will help you decide how hot, cold, wet, or windy it might be!

Date:

Astronomy

Feb. 18, 2013 Rise Set
Actual Time 6:57 AM CST 6:12 PM CST
Civil Twilight 6:33 AM CST 6:37 PM CST
Nautical Twilight 6:05 AM CST 7:04 PM CST
Astronomical Twilight 5:37 AM CST 7:32 PM CST
Moon 12:11 PM CST (2/18) 1:26 AM CST (2/18)
Length of Visible Light 12h 03m
Length of Day
11h 15m
First Quarter, 58% of the Moon is Illuminated
Feb 18
First Quarter
Feb 25
Full
Mar 4
Last Quarter
Mar 11
New
Mar 19
First Quarter

Hourly Weather History & Observations

Time (CST) Temp. Dew Point Humidity Pressure Visibility Wind Dir Wind Speed Gust Speed Precip Events Conditions
12:53 AM 64.0 °F 51.1 °F 63% 30.07 in 10.0 mi SSE 11.5 mph - N/A   Overcast
1:53 AM 64.0 °F 52.0 °F 65% 30.04 in 10.0 mi SSE 12.7 mph 21.9 mph N/A   Overcast
2:53 AM 64.0 °F 54.0 °F 70% 30.01 in 10.0 mi SSE 13.8 mph 18.4 mph N/A   Overcast
3:53 AM 64.9 °F 54.0 °F 68% 30.00 in 10.0 mi South 11.5 mph 21.9 mph N/A   Overcast
4:53 AM 64.9 °F 55.0 °F 70% 29.99 in 10.0 mi South 12.7 mph 18.4 mph N/A   Mostly Cloudy
5:53 AM 64.9 °F 55.9 °F 73% 29.98 in 10.0 mi South 12.7 mph 20.7 mph N/A   Overcast
6:53 AM 64.9 °F 55.9 °F 73% 29.98 in 10.0 mi South 11.5 mph 19.6 mph N/A   Mostly Cloudy
7:53 AM 66.0 °F 57.0 °F 73% 29.98 in 10.0 mi South 16.1 mph 20.7 mph N/A   Mostly Cloudy
8:53 AM 69.1 °F 57.9 °F 68% 29.99 in 10.0 mi South 18.4 mph 24.2 mph N/A   Mostly Cloudy
9:16 AM 69.8 °F 59.0 °F 68% 29.98 in 10.0 mi South 13.8 mph 24.2 mph N/A   Overcast
9:53 AM 70.0 °F 59.0 °F 68% 30.00 in 10.0 mi South 15.0 mph 31.1 mph N/A   Overcast
10:22 AM 69.8 °F 59.0 °F 68% 29.99 in 10.0 mi South 20.7 mph 26.5 mph N/A   Overcast
10:53 AM 70.0 °F 60.1 °F 71% 30.00 in 10.0 mi South 11.5 mph 24.2 mph N/A   Overcast
11:06 AM 69.8 °F 59.0 °F 68% 29.99 in 10.0 mi South 16.1 mph 26.5 mph N/A   Overcast
11:53 AM 70.0 °F 61.0 °F 73% 29.99 in 10.0 mi South 15.0 mph 23.0 mph 0.00 in   Overcast
12:53 PM 71.1 °F 62.1 °F 73% 29.94 in 10.0 mi South 15.0 mph 24.2 mph 0.02 in   Overcast
1:53 PM 72.0 °F 61.0 °F 68% 29.90 in 10.0 mi South 20.7 mph 28.8 mph 0.00 in   Mostly Cloudy
2:53 PM 71.1 °F 62.1 °F 73% 29.88 in 10.0 mi South 21.9 mph 29.9 mph 0.03 in Rain Light Rain
3:53 PM 71.1 °F 63.0 °F 75% 29.85 in 10.0 mi South 16.1 mph 25.3 mph 0.00 in Rain Light Rain
4:07 PM 69.8 °F 62.6 °F 78% 29.86 in 1.8 mi SW 18.4 mph 31.1 mph 0.14 in Rain Heavy Rain
4:09 PM 68.0 °F 64.4 °F 88% 29.86 in 3.0 mi SSW 16.1 mph 31.1 mph 0.20 in Rain Heavy Rain
4:10 PM 68.0 °F 64.4 °F 88% 29.86 in 4.0 mi SSW 13.8 mph 31.1 mph 0.20 in Rain Heavy Rain
4:40 PM 69.8 °F 64.4 °F 83% 29.87 in 10.0 mi SW 13.8 mph - 0.22 in   Mostly Cloudy
4:53 PM 70.0 °F 64.0 °F 81% 29.89 in 10.0 mi SSW 16.1 mph 21.9 mph 0.22 in   Mostly Cloudy
5:53 PM 69.1 °F 64.0 °F 84% 29.91 in 10.0 mi SW 8.1 mph - 0.09 in   Mostly Cloudy
6:53 PM 69.1 °F 63.0 °F 81% 29.93 in 10.0 mi SSW 11.5 mph - N/A   Scattered Clouds
7:53 PM 68.0 °F 63.0 °F 84% 29.95 in 10.0 mi SSW 9.2 mph - N/A   Partly Cloudy
8:53 PM 66.9 °F 62.1 °F 84% 29.96 in 10.0 mi SSW 9.2 mph - N/A   Partly Cloudy
9:53 PM 66.9 °F 62.1 °F 84% 29.97 in 10.0 mi SSW 10.4 mph - N/A   Scattered Clouds
10:53 PM 57.9 °F 54.0 °F 87% 30.06 in 5.0 mi NNW 19.6 mph 39.1 mph 0.05 in Rain Rain
11:53 PM 55.9 °F 52.0 °F 87% 30.11 in 10.0 mi NNW 4.6 mph - 0.04 in Rain Light Rain